Weather in Las Rozas de Madrid

Spain     40°29′35″N   3°52′37″W
temp.,
°C
wind,
m/s
gust,
m/s
humid.,
%
clouds,
%
prec.,
mm/h
press.,
hPa
HPBL,
m
13 may, thu
thu1323:00+12nw5115612 0.0 1019776
02:00+11nw49624 0.0 1019670
05:00+9nw356834 0.0 1018233
08:00+9nw23635 0.0 1019179
11:00+15wsw474631 0.0 10171405
14:00+16wsw464793 0.0 10161436
17:00+17wnw3450100 0.1 10131021
20:00+15nw3663100 0.1 1013444
14 may, fri
fri1423:00+14wnw486728 0.0 1014835
02:00+12nw6126318 0.1 1015861
05:00+11nw4964100 0.0 1015578
08:00+10nw59675 0.0 1017622
11:00+13nw454911 0.0 10171035
14:00+18nw46304 0.0 10161572
17:00+21nw58235 0.0 10141979
20:00+19nw5730100 0.0 1015963
15 may, sat
sat1523:00+16nw3340100 0.0 101688
02:00+14nw2346100 0.0 101665
05:00+13nw225420 0.0 101535
08:00+13wnw125386 0.0 101536
11:00+20sw36365 0.0 1014902
14:00+24wsw4935100 0.0 10131998
17:00+25sw4736100 0.0 10121530
20:00+23wnw584692 0.0 1012948
16 may, sun
sun1623:00+18nw366283 0.0 1014287
02:00+16nw236750 0.0 1014119
05:00+14nw23705 0.0 101364
08:00+14nw23705 0.0 1014115
11:00+20wnw35527 0.0 10141144
14:00+22nw464699 0.0 10131605
17:00+22nw354794 0.0 10111100
20:00+20nw7115192 0.0 1012823
17 may, mon
mon1723:00+17nw6116198 0.0 1014647
02:00+14nw6136380 0.0 1015658
05:00+11nw61254100 0.0 1017702
08:00+9nw5757100 0.0 1020406
11:00+14nw452575 0.0 10201045
14:00+18nw45216 0.0 10191627
17:00+20nw782329 0.0 10191761
20:00+18nnw572477 0.0 10191202